Starlink 32078

operational
NORAD ID: 60338 Int'l Des: 2024-136 Owner: SPXS Country: US Constellation: starlink
LEOCIRCULAR

关于 Starlink 32078

正在加载描述...

实时位置

正在加载3D地球...

即将过境

高度历史

Altitude vs Time

uPlot chart will show altitude changes over time

两行轨道根数

1 60338U 24136K 25261.12695525 .00004837 00000-0 17521-3 0 9998
2 60338 53.1596 157.2585 0001076 71.7508 288.3610 15.30224552 63248
Epoch: Sep 18, 2025 • Age: 19 hours

当前状态

高度 487.1 km
速度 7.62 km/s
星下点 -36.25°S, 157.73°E
发射日期 Aug 2, 2024
运行时间 1.1 years
类型 internet

技术详情

分类 Payload
质量 730.00 kg
干质量 700.00 kg
总质量 730.00 kg
长度 0.30 m
直径 4.10 m
跨度 29.00 m
形状 Box + pan
制造商 SPXS
平台类型 Starlink V2M
阶段状态 In Orbit
所有者/国家 SPXS/US

大型星座

Loading constellations...